Starlink 30290

operational
NORAD ID: 57858 Int'l Des: 2023-141 Owner: SPXS Country: US Constellation: starlink
LEOCIRCULAR

About Starlink 30290

Description loading...

Live Position

Loading 3D Globe...

Upcoming Passes

Altitude History

Altitude vs Time

uPlot chart will show altitude changes over time

Two-Line Element Set

1 57858U 23141U 25257.55482549 -.00000568 00000-0 -70656-5 0 9997
2 57858 53.1609 22.0583 0001080 73.1506 286.9613 15.30191354113361
Epoch: Sep 14, 2025 • Age: 20 hours

Current Status

Altitude 479.9 km
Velocity 7.63 km/s
Sub-Earth Point -15.66°S, 80.8°E
Launch Date Sep 12, 2023
Age 2 years
Type internet

Technical Details

Classification Payload
Mass 730.00 kg
Dry Mass 700.00 kg
Total Mass 730.00 kg
Length 0.30 m
Diameter 4.10 m
Span 29.00 m
Shape Box + pan
Manufacturer SPXS
Bus Type Starlink V2M
Phase Status In Orbit
Owner/State SPXS/US

Large Constellations

Loading constellations...